Regional Weather Roundup
Issued by NWS Portland, ME

Home | Current Version | Previous Version | Text Only | Print | Product List | Glossary On
Versions: 1 2 3 4 5 6 7 8 9 10 11 12 13 14 15 16 17 18 19 20 21 22 23 24 25 26 27 28 29 30 31 32 33 34 35 36 37 38 39 40 41 42 43 44 45 46 47 48 49 50
000
ASUS41 KGYX 140610
RWRGYX
WEATHER ROUNDUP FOR MAINE AND NEW HAMPSHIRE
NATIONAL WEATHER SERVICE GRAY ME
200 AM EDT MON JUL 14 2014

MEZ002-005-006-010-012-015-018-020-021-024-026-027-029-140700-
MAINE

CITY           SKY/WX    TMP DP  RH WIND       PRES   REMARKS
PORTLAND       CLOUDY    65  62  90 SW10      29.84F
6HR MIN TEMP:  64; 6HR MAX TEMP:  69; 6HR PCP:  0.02;

SANFORD        CLOUDY    70  64  83 SW7       29.85S
BAR HARBOR     CLOUDY    64  63  94 S16G24    29.87F
WISCASSET      CLOUDY    69  65  86 SW8       29.85F
6HR MIN TEMP:  68; 6HR MAX TEMP:  69; 6HR PCP:  0.06;

ROCKLAND       CLOUDY    64  64 100 SW14      29.85F
FRYEBURG       CLOUDY    72  67  84 SW5       29.82F
6HR MIN TEMP:  72; 6HR MAX TEMP:  73; 6HR PCP:  0.01;

LEWISTONAUBURN CLOUDY    66  63  88 S7        29.83F
AUGUSTA        CLOUDY    66  64  93 S9        29.83F
6HR MIN TEMP:  65; 6HR MAX TEMP:  66; 6HR PCP:  0.08;

WATERVILLE     CLOUDY    66  64  94 S7        29.78F
BANGOR         CLOUDY    66  64  93 S12       29.83F
6HR MIN TEMP:  66; 6HR MAX TEMP:  69; 6HR PCP:  0.04;

GREENVILLE       N/A     64  63  96 VRB3      29.80S
6HR MIN TEMP:  64; 6HR MAX TEMP:  65; 6HR PCP:  0.03;

MILLINOCKET    CLOUDY    66  63  90 MISG      29.80F
6HR MIN TEMP:  66; 6HR MAX TEMP:  69; 6HR PCP:  0.04;

HOULTON        CLOUDY    65  63  93 S12       29.78F
6HR MIN TEMP:  65; 6HR MAX TEMP:  72; 6HR PCP:  0.10;

PRESQUE ISLE   CLOUDY    66  59  77 S14G21    29.74F
6HR MIN TEMP:  66; 6HR MAX TEMP:  70;

FRENCHVILLE    LGT RAIN  64  63  96 S13       29.71F FOG
6HR MIN TEMP:  64; 6HR MAX TEMP:  69; 6HR PCP:  0.03;

CARIBOU        CLOUDY    67  63  87 S10G17    29.73F
6HR MIN TEMP:  67; 6HR MAX TEMP:  71; 6HR PCP: TRACE;

$$

NHZ002-005-008-009-011-012-014-140700-
NEW HAMPSHIRE

CITY           SKY/WX    TMP DP  RH WIND       PRES   REMARKS
PORTSMOUTH     CLOUDY    73  67  83 S8        29.84F
ROCHESTER      CLOUDY    70  67  90 VRB3      29.85F
6HR MIN TEMP:  69; 6HR MAX TEMP:  78; 6HR PCP:  0.04;

NASHUA         CLOUDY    72  70  93 VRB6      29.87F
MANCHESTER     CLOUDY    72  68  87 S10       29.84F
6HR MIN TEMP:  71; 6HR MAX TEMP:  80; 6HR PCP:  0.02;

CONCORD        CLOUDY    69  68  96 S7        29.85F
6HR MIN TEMP:  69; 6HR MAX TEMP:  76; 6HR PCP:  0.15;

LACONIA        CLOUDY    72  66  83 SW10G17   29.83F
PLYMOUTH       CLOUDY    72  67  83 W3        29.83S
BERLIN         RAIN      68  64  87 CALM      29.84R FOG
6HR MIN TEMP:  69; 6HR MAX TEMP:  72; 6HR PCP:  0.06;

WHITEFIELD     CLOUDY    67  63  87 CALM      29.86S
6HR MIN TEMP:  67; 6HR MAX TEMP:  73; 6HR PCP:  0.19;

JAFFREY        CLOUDY    71  68  90 VRB7      29.90F
6HR MIN TEMP:  69; 6HR MAX TEMP:  74; 6HR PCP:  0.02;

LEBANON        CLOUDY    70  67  90 S7        29.84R
6HR MIN TEMP:  70; 6HR MAX TEMP:  76; 6HR PCP: TRACE;

MT WASHINGTON  HVY RAIN  55  55 100 W59G64      N/A  VSB 0
6HR MIN TEMP:  54; 6HR MAX TEMP:  56; 6HR PCP:  0.25;

$$

VTZ005-007-008-140700-
VERMONT

CITY           SKY/WX    TMP DP  RH WIND       PRES   REMARKS
ST JOHNSBURY     N/A     65  64  97 MISG      29.82R
MONTPELIER     PTCLDY    67  65  93 SW3       29.90R
BURLINGTON     CLEAR     71  67  87 NW6       29.83R
$$

MAZ007-012-024-CTZ003-RIZ002-NYZ038-NYZ072-140700-
SOUTHERN NEW ENGLAND AND NY

CITY           SKY/WX    TMP DP  RH WIND       PRES   REMARKS
BOSTON         CLOUDY    74  67  78 SW10      29.88F
WORCESTER      LGT RAIN  69  68  96 SW9       29.90F
NANTUCKET      MOCLDY    68  66  93 S16       29.97F
PROVIDENCE     MOCLDY    72  67  84 SW12      29.91F
HARTFORD       LGT RAIN  73  70  90 S7        29.87F FOG
ALBANY         MOCLDY    70  68  93 CALM      29.87S
NEW YORK CITY  LGT RAIN  72  69  90 S3        29.89F
$$

ANZ081-ANZ082-ANZ150-NHZ014-MEZ023>029-140700-
COASTAL MARINE OBSERVATIONS

STATION/POSITION TIME  TEMP    WIND        PRES    WAVE
                       AIR SEA DIR/SP/G            HT/PER
                 (UTC) (F)     (DEG/KT/KT) (MB)    (FT/S)
MOUNT DESERT ROC 0600   58                 1011.8F
MATINICUS ROCK   0500          190/ 23/ 25 1011.5F
PORTLAND WX BUOY 0600   61 54  190/ 17/ 19 1009.7F   5/ 6
WELLS            0600   57 50  210/  4/  6 1010.0S
ISLE OF SHOALS   0500   67     190/ 20/ 20 1011.0F
JEFFREYS LEDGE   0600      62                N/A     5/ 5
CASHES LEDGE BUO 0600   66 63  190/ 19/ 23 1010.9S   6/ 6
$$

.............KEY..............
   WCI - WIND CHILL
   TC  - TEMPERATURE IN CELSIUS
   VSB - VISIBILITY IN MILES
   HX  - HEAT INDEX
   FAIR- INDICATES FEW OR NO CLOUDS BELOW 12,000 FT, WITH NO
         SIGNIFICANT WEATHER AND/OR OBSTRUCTIONS TO VISIBILITY.





USA.gov is the U.S. government's official web portal to all federal, state and local government web resources and services.